Time,TemperatureF,DewpointF,PressureIn,WindDirection,WindDirectionDegrees,WindSpeedMPH,WindSpeedGustMPH,Humidity,HourlyPrecipIn,Conditions,Clouds,dailyrainin,SolarRadiationWatts/m^2,SoftwareType,DateUTC
2013-02-16 00:02:00,38.0,31.0,-100.00,NE,34,3.0,7.0,77,0.00,,,0.00,0.000000,,2013-02-16 05:02:00,
2013-02-16 00:32:00,38.0,32.0,-100.00,North,358,6.0,10.0,78,0.00,,,0.00,0.000000,,2013-02-16 05:32:00,
2013-02-16 00:42:00,38.0,32.0,-100.00,North,358,6.0,10.0,78,0.00,,,0.00,0.000000,,2013-02-16 05:42:00,
2013-02-16 00:52:00,38.0,32.0,-100.00,North,358,6.0,10.0,78,0.00,,,0.00,0.000000,,2013-02-16 05:52:00,
2013-02-16 01:02:00,38.0,32.0,-100.00,North,358,6.0,10.0,78,0.00,,,0.00,0.000000,,2013-02-16 06:02:00,
2013-02-16 01:32:00,36.0,26.0,-100.00,NW,325,5.0,16.0,68,0.00,,,0.00,0.000000,,2013-02-16 06:32:00,
2013-02-16 01:42:00,36.0,26.0,-100.00,NW,325,5.0,16.0,68,0.00,,,0.00,0.000000,,2013-02-16 06:42:00,
2013-02-16 01:52:00,36.0,26.0,-100.00,NW,325,5.0,16.0,68,0.00,,,0.00,0.000000,,2013-02-16 06:52:00,
2013-02-16 02:02:00,36.0,26.0,-100.00,NW,325,5.0,16.0,68,0.00,,,0.00,0.000000,,2013-02-16 07:02:00,
2013-02-16 02:32:00,35.0,24.0,-100.00,NNW,334,6.0,15.0,63,0.00,,,-99.99,0.000000,,2013-02-16 07:32:00,
2013-02-16 02:42:00,35.0,24.0,-100.00,NNW,334,6.0,15.0,63,0.00,,,-99.99,0.000000,,2013-02-16 07:42:00,
2013-02-16 02:53:00,35.0,24.0,-100.00,NNW,334,6.0,15.0,63,0.00,,,-99.99,0.000000,,2013-02-16 07:53:00,
2013-02-16 03:01:00,35.0,24.0,-100.00,NNW,334,6.0,15.0,63,0.00,,,-99.99,0.000000,,2013-02-16 08:01:00,
2013-02-16 03:32:00,35.0,23.0,-100.00,NW,314,3.0,11.0,61,0.00,,,0.00,0.000000,,2013-02-16 08:32:00,
2013-02-16 03:42:00,35.0,23.0,-100.00,NW,314,3.0,11.0,61,0.00,,,0.00,0.000000,,2013-02-16 08:42:00,
2013-02-16 03:52:00,35.0,23.0,-100.00,NW,314,3.0,11.0,61,0.00,,,0.00,0.000000,,2013-02-16 08:52:00,
2013-02-16 04:02:00,35.0,23.0,-100.00,NW,314,3.0,11.0,61,0.00,,,0.00,0.000000,,2013-02-16 09:02:00,
2013-02-16 05:32:00,31.0,25.0,-100.00,WSW,237,2.0,4.0,77,-99.99,,,0.00,0.000000,,2013-02-16 10:32:00,
2013-02-16 05:42:00,31.0,25.0,-100.00,WSW,237,2.0,4.0,77,-99.99,,,0.00,0.000000,,2013-02-16 10:42:00,
2013-02-16 05:52:00,31.0,25.0,-100.00,WSW,237,2.0,4.0,77,-99.99,,,0.00,0.000000,,2013-02-16 10:52:00,
2013-02-16 06:02:00,31.0,25.0,-100.00,WSW,237,2.0,4.0,77,-99.99,,,0.00,0.000000,,2013-02-16 11:02:00,
2013-02-16 06:32:00,33.0,25.0,-100.00,North,10,4.0,7.0,71,0.00,,,0.00,0.000000,,2013-02-16 11:32:00,
2013-02-16 06:42:00,33.0,25.0,-100.00,North,10,4.0,7.0,71,0.00,,,0.00,0.000000,,2013-02-16 11:42:00,
2013-02-16 06:52:00,33.0,25.0,-100.00,North,10,4.0,7.0,71,0.00,,,0.00,0.000000,,2013-02-16 11:52:00,
2013-02-16 07:02:00,33.0,25.0,-100.00,North,10,4.0,7.0,71,0.00,,,0.00,0.000000,,2013-02-16 12:02:00,
2013-02-16 07:32:00,33.0,23.0,-100.00,NNW,343,4.0,7.0,66,0.00,,,0.00,0.000000,,2013-02-16 12:32:00,
2013-02-16 07:42:00,33.0,23.0,-100.00,NNW,343,4.0,7.0,66,0.00,,,0.00,0.000000,,2013-02-16 12:42:00,
2013-02-16 07:52:00,33.0,23.0,-100.00,NNW,343,4.0,7.0,66,0.00,,,0.00,0.000000,,2013-02-16 12:52:00,
2013-02-16 08:02:00,33.0,23.0,-100.00,NNW,343,4.0,7.0,66,0.00,,,0.00,0.000000,,2013-02-16 13:02:00,
2013-02-16 09:32:00,33.0,24.0,-100.00,North,357,3.0,10.0,69,-99.99,,,0.00,81.000000,,2013-02-16 14:32:00,
2013-02-16 09:42:00,33.0,24.0,-100.00,North,357,3.0,10.0,69,-99.99,,,0.00,81.000000,,2013-02-16 14:42:00,
2013-02-16 09:52:00,33.0,24.0,-100.00,North,357,3.0,10.0,69,-99.99,,,0.00,81.000000,,2013-02-16 14:52:00,
2013-02-16 10:02:00,33.0,24.0,-100.00,North,357,3.0,10.0,69,-99.99,,,0.00,81.000000,,2013-02-16 15:02:00,
2013-02-16 10:32:00,34.0,22.0,-100.00,NNW,334,6.0,12.0,61,0.00,,,0.00,199.000000,,2013-02-16 15:32:00,
2013-02-16 10:42:00,34.0,22.0,-100.00,NNW,334,6.0,12.0,61,0.00,,,0.00,199.000000,,2013-02-16 15:42:00,
2013-02-16 10:52:00,34.0,22.0,-100.00,NNW,334,6.0,12.0,61,0.00,,,0.00,199.000000,,2013-02-16 15:52:00,
2013-02-16 11:02:00,34.0,22.0,-100.00,NNW,334,6.0,12.0,61,0.00,,,0.00,199.000000,,2013-02-16 16:02:00,
2013-02-16 11:32:00,37.0,20.0,-100.00,NW,324,7.0,15.0,49,0.00,,,0.00,340.000000,,2013-02-16 16:32:00,
2013-02-16 11:42:00,37.0,20.0,-100.00,NW,324,7.0,15.0,49,0.00,,,0.00,340.000000,,2013-02-16 16:42:00,
2013-02-16 11:52:00,37.0,20.0,-100.00,NW,324,7.0,15.0,49,0.00,,,0.00,340.000000,,2013-02-16 16:52:00,
2013-02-16 12:01:00,37.0,20.0,-100.00,NW,324,7.0,15.0,49,0.00,,,0.00,340.000000,,2013-02-16 17:01:00,
2013-02-16 12:32:00,35.0,15.0,-100.00,NNW,333,6.0,15.0,44,0.00,,,0.00,330.000000,,2013-02-16 17:32:00,
2013-02-16 12:42:00,35.0,15.0,-100.00,NNW,333,6.0,15.0,44,0.00,,,0.00,330.000000,,2013-02-16 17:42:00,
2013-02-16 12:52:00,35.0,15.0,-100.00,NNW,333,6.0,15.0,44,0.00,,,0.00,330.000000,,2013-02-16 17:52:00,
2013-02-16 13:02:00,35.0,15.0,-100.00,NNW,333,6.0,15.0,44,0.00,,,0.00,330.000000,,2013-02-16 18:02:00,
2013-02-16 13:33:00,32.0,16.0,-100.00,NW,304,7.0,19.0,52,0.00,,,0.00,246.000000,,2013-02-16 18:33:00,
2013-02-16 13:42:00,32.0,16.0,-100.00,NW,304,7.0,19.0,52,0.00,,,0.00,246.000000,,2013-02-16 18:42:00,
2013-02-16 13:52:00,32.0,16.0,-100.00,NW,304,7.0,19.0,52,0.00,,,0.00,246.000000,,2013-02-16 18:52:00,
2013-02-16 14:02:00,32.0,16.0,-100.00,NW,304,7.0,19.0,52,0.00,,,0.00,246.000000,,2013-02-16 19:02:00,
2013-02-16 14:32:00,34.0,12.0,-100.00,NW,312,14.0,29.0,39,0.00,,,0.00,717.000000,,2013-02-16 19:32:00,
2013-02-16 14:42:00,34.0,12.0,-100.00,NW,312,14.0,29.0,39,0.00,,,0.00,717.000000,,2013-02-16 19:42:00,
2013-02-16 14:52:00,34.0,12.0,-100.00,NW,312,14.0,29.0,39,0.00,,,0.00,717.000000,,2013-02-16 19:52:00,
2013-02-16 15:01:00,34.0,12.0,-100.00,NW,312,14.0,29.0,39,0.00,,,0.00,717.000000,,2013-02-16 20:01:00,
2013-02-16 15:32:00,36.0,12.0,-100.00,NW,324,6.0,25.0,37,0.00,,,0.00,506.000000,,2013-02-16 20:32:00,
2013-02-16 15:42:00,36.0,12.0,-100.00,NW,324,6.0,25.0,37,0.00,,,0.00,506.000000,,2013-02-16 20:42:00,
2013-02-16 15:52:00,36.0,12.0,-100.00,NW,324,6.0,25.0,37,0.00,,,0.00,506.000000,,2013-02-16 20:52:00,
2013-02-16 16:02:00,36.0,12.0,-100.00,NW,324,6.0,25.0,37,0.00,,,0.00,506.000000,,2013-02-16 21:02:00,
2013-02-16 16:32:00,30.0,14.0,-100.00,North,359,8.0,24.0,50,0.00,,,0.00,242.000000,,2013-02-16 21:32:00,
2013-02-16 16:42:00,30.0,14.0,-100.00,North,359,8.0,24.0,50,0.00,,,0.00,242.000000,,2013-02-16 21:42:00,
2013-02-16 16:52:00,30.0,14.0,-100.00,North,359,8.0,24.0,50,0.00,,,0.00,242.000000,,2013-02-16 21:52:00,
2013-02-16 17:01:00,30.0,14.0,-100.00,North,359,8.0,24.0,50,0.00,,,0.00,242.000000,,2013-02-16 22:01:00,
2013-02-16 17:32:00,28.0,21.0,-100.00,NNW,347,6.0,17.0,75,0.00,,,0.00,228.000000,,2013-02-16 22:32:00,
2013-02-16 17:42:00,28.0,21.0,-100.00,NNW,347,6.0,17.0,75,0.00,,,0.00,228.000000,,2013-02-16 22:42:00,
2013-02-16 17:52:00,28.0,21.0,-100.00,NNW,347,6.0,17.0,75,0.00,,,0.00,228.000000,,2013-02-16 22:52:00,
2013-02-16 18:02:00,28.0,21.0,-100.00,NNW,347,6.0,17.0,75,0.00,,,0.00,228.000000,,2013-02-16 23:02:00,
2013-02-16 18:32:00,27.0,13.0,-100.00,NNW,336,8.0,26.0,54,0.00,,,0.00,65.000000,,2013-02-16 23:32:00,
2013-02-16 18:42:00,27.0,13.0,-100.00,NNW,336,8.0,26.0,54,0.00,,,0.00,65.000000,,2013-02-16 23:42:00,
2013-02-16 18:52:00,27.0,13.0,-100.00,NNW,336,8.0,26.0,54,0.00,,,0.00,65.000000,,2013-02-16 23:52:00,
2013-02-16 19:02:00,27.0,13.0,-100.00,NNW,336,8.0,26.0,54,0.00,,,0.00,65.000000,,2013-02-17 00:02:00,
2013-02-16 19:32:00,26.0,16.0,-100.00,North,354,5.0,18.0,65,0.00,,,0.00,1.000000,,2013-02-17 00:32:00,
2013-02-16 19:42:00,26.0,16.0,-100.00,North,354,5.0,18.0,65,0.00,,,0.00,1.000000,,2013-02-17 00:42:00,
2013-02-16 19:52:00,26.0,16.0,-100.00,North,354,5.0,18.0,65,0.00,,,0.00,1.000000,,2013-02-17 00:52:00,
2013-02-16 20:01:00,26.0,16.0,-100.00,North,354,5.0,18.0,65,0.00,,,0.00,1.000000,,2013-02-17 01:01:00,
2013-02-16 21:32:00,24.0,17.0,-100.00,WNW,300,6.0,26.0,73,-99.99,,,0.00,0.000000,,2013-02-17 02:32:00,
2013-02-16 21:42:00,24.0,17.0,-100.00,WNW,300,6.0,26.0,73,-99.99,,,0.00,0.000000,,2013-02-17 02:42:00,
2013-02-16 21:52:00,24.0,17.0,-100.00,WNW,300,6.0,26.0,73,-99.99,,,0.00,0.000000,,2013-02-17 02:52:00,
2013-02-16 22:02:00,24.0,17.0,-100.00,WNW,300,6.0,26.0,73,-99.99,,,0.00,0.000000,,2013-02-17 03:02:00,
2013-02-16 22:32:00,24.0,9.0,-100.00,NNW,327,9.0,20.0,51,0.00,,,0.00,0.000000,,2013-02-17 03:32:00,
2013-02-16 22:42:00,24.0,9.0,-100.00,NNW,327,9.0,20.0,51,0.00,,,0.00,0.000000,,2013-02-17 03:42:00,
2013-02-16 22:52:00,24.0,9.0,-100.00,NNW,327,9.0,20.0,51,0.00,,,0.00,0.000000,,2013-02-17 03:52:00,
2013-02-16 23:01:00,24.0,9.0,-100.00,NNW,327,9.0,20.0,51,0.00,,,0.00,0.000000,,2013-02-17 04:01:00,
2013-02-16 23:32:00,24.0,9.0,-100.00,NW,314,5.0,21.0,52,0.00,,,0.00,0.000000,,2013-02-17 04:32:00,
2013-02-16 23:42:00,24.0,9.0,-100.00,NW,314,5.0,21.0,52,0.00,,,0.00,0.000000,,2013-02-17 04:42:00,
2013-02-16 23:52:00,24.0,9.0,-100.00,NW,314,5.0,21.0,52,0.00,,,0.00,0.000000,,2013-02-17 04:52:00,